This demonstration page uses our WeatherBlox Daily Observations layout. Learn more.

Left ArrowRight Arrow

Hourly Observations for December 29, 2018

Temp ( °F °C ) Dew Point ( °F °C ) Humidity (%) Winds ( mph kmh ) Pressure ( in mb ) Visibility ( mi km ) Precip ( " mm )
12:53 am 00:53 Clear 10 -12.2 4 -15.6 76 76 W 3 6 30.45 1031 10 16 0.00 0.00
1:53 am 01:53 Clear 9 -12.8 3 -16.1 77 77 W 3 6 30.44 1031 10 16 0.00 0.00
2:53 am 02:53 Clear 8 -13.3 3 -16.1 80 80 W 5 7 30.42 1030 10 16 0.00 0.00
3:53 am 03:53 Clear 8 -13.3 3 -16.1 80 80 WNW 5 7 30.42 1030 10 16 0.00 0.00
4:53 am 04:53 Clear 10 -12.2 4 -15.6 76 76 WNW 8 13 30.40 1030 10 16 0.00 0.00
5:53 am 05:53 Clear 9 -12.8 4 -15.6 80 80 SW 5 7 30.42 1030 10 16 0.00 0.00
6:53 am 06:53 Clear 9 -12.8 4 -15.6 80 80 WSW 3 6 30.42 1030 10 16 0.00 0.00
7:53 am 07:53 Clear 9 -12.8 4 -15.6 80 80 SW 5 7 30.44 1031 10 16 0.00 0.00
8:53 am 08:53 Partly Cloudy 9 -12.8 4 -15.6 80 80 WSW 6 9 30.44 1031 9 14 0.00 0.00
9:53 am 09:53 Sunny 14 -10 8 -13.3 77 77 SW 7 11 30.43 1030 10 16 0.00 0.00
10:53 am 10:53 Sunny 19 -7.2 10 -12.2 68 68 SW 7 11 30.39 1029 10 16 0.00 0.00
11:53 am 11:53 Sunny 22 -5.6 13 -10.6 68 68 SW 8 13 30.32 1027 10 16 0.00 0.00
12:53 pm 12:53 Sunny 24 -4.4 13 -10.6 62 62 SW 9 15 30.28 1025 10 16 0.00 0.00
1:53 pm 13:53 Sunny 26 -3.3 15 -9.4 63 63 SW 10 17 30.26 1025 10 16 0.00 0.00
2:53 pm 14:53 Sunny 28 -2.2 17 -8.3 63 63 SW 8 13 30.24 1024 10 16 0.00 0.00
3:53 pm 15:53 Sunny 28 -2.2 17 -8.3 63 63 SSW 10 17 30.22 1023 10 16 0.00 0.00
4:53 pm 16:53 Sunny 27 -2.8 17 -8.3 66 66 S 12 19 30.19 1022 10 16 0.00 0.00
5:53 pm 17:53 Clear 26 -3.3 17 -8.3 69 69 S 12 19 30.16 1022 10 16 0.00 0.00
6:53 pm 18:53 Clear 25 -3.9 17 -8.3 72 72 S 10 17 30.15 1021 10 16 0.00 0.00
7:53 pm 19:53 Clear 25 -3.9 16 -8.9 69 69 SSW 16 26 30.16 1022 10 16 0.00 0.00
8:53 pm 20:53 Clear 25 -3.9 15 -9.4 66 66 SSW 14 22 30.13 1020 10 16 0.00 0.00
9:53 pm 21:53 Clear 24 -4.4 15 -9.4 68 68 SSW 15 24 30.11 1020 10 16 0.00 0.00
10:53 pm 22:53 Clear 24 -4.4 15 -9.4 68 68 SW 15 24 30.08 1019 10 16 0.00 0.00
11:53 pm 23:53 Clear 23 -5 15 -9.4 72 72 SSW 17 28 30.04 1017 10 16 0.00 0.00

Powered by AerisWeather